1507942801.19,40645,10.5,74230.3,-3.75,-25.97,-25.75,0,*5E
1507942802.45,40646,10.5,74234.8,-3.75,-26.13,-25.97,0,*5E
1507942803.69,40647,10.5,74234.0,-3.75,-26.23,-26.29,0,*5A
1507942804.92,40648,10.5,74242.5,-3.75,-26.23,-25.97,0,*53
1507942806.12,40649,10.5,74244.5,-3.75,-26.23,-25.91,0,*54
1507942807.38,40650,10.5,74240.8,-3.75,-26.13,-26.13,0,*56
1507942808.64,40651,10.5,74238.3,-3.75,-26.13,-25.97,0,*58
1507942809.84,40652,10.5,74232.3,-3.75,-26.07,-25.91,0,*58
1507942811.07,40653,10.5,74230.0,-3.75,-26.23,-26.13,0,*56
1507942812.27,40654,10.5,74242.8,-3.75,-26.23,-26.23,0,*52
1507942813.5,40655,10.5,74244.3,-3.75,-26.29,-26.23,0,*59
1507942814.76,40656,10.5,74222.0,-3.75,-26.29,-26.13,0,*59
1507942816.0,40657,10.5,74238.3,-3.75,-26.29,-26.23,0,*5B
1507942817.2,40658,10.5,74244.3,-3.75,-26.39,-26.23,0,*55
1507942818.46,40659,10.5,74234.5,-3.75,-26.29,-26.13,0,*56
1507942819.7,40660,10.5,74218.8,-3.75,-25.91,-25.71,0,*5B
1507942820.95,40661,10.5,74224.3,-3.75,-25.45,-25.29,0,*5E
1507942822.24,40662,10.5,74232.3,-3.73,-25.55,-25.29,0,*5A
1507942823.51,40663,10.5,74236.8,-3.75,-25.97,-25.71,0,*5E
1507942824.81,40664,10.5,74240.8,-3.73,-25.97,-25.75,0,*5B
1507942826.04,40665,10.5,74242.5,-3.75,-26.13,-25.87,0,*5E
1507942827.33,40666,10.5,74234.3,-3.73,-25.97,-25.75,0,*59
1507942828.59,40667,10.5,74236.3,-3.73,-26.13,-25.91,0,*5D
1507942829.85,40668,10.5,74236.3,-3.73,-26.23,-26.13,0,*58
1507942831.14,40669,10.5,74242.0,-3.73,-26.29,-26.29,0,*5A
1507942832.37,40670,10.5,74236.3,-3.75,-26.23,-25.97,0,*58
1507942833.63,40671,10.5,74244.5,-3.73,-26.13,-25.87,0,*5D
1507942834.87,40672,10.5,74238.0,-3.75,-26.13,-25.87,0,*58
1507942836.13,40673,10.5,74232.0,-3.75,-25.75,-25.55,0,*55
1507942837.4,40674,10.5,74232.0,-3.73,-25.87,-25.71,0,*5F
1507942838.67,40675,10.5,74238.8,-3.73,-25.87,-25.55,0,*58
1507942839.88,40676,10.5,74240.8,-3.75,-25.91,-25.61,0,*5D
1507942841.12,40677,10.5,74244.3,-3.73,-25.91,-25.61,0,*5A
1507942842.38,40678,10.5,74244.3,-3.73,-25.29,-24.97,0,*5E
1507942843.62,40679,10.5,74238.5,-3.73,-25.87,-25.61,0,*53
1507942844.88,40680,10.5,74238.8,-3.73,-26.13,-25.87,0,*53
1507942846.12,40681,10.5,74238.0,-3.71,-26.07,-26.07,0,*5E
1507942847.38,40682,10.5,74232.8,-3.71,-26.17,-25.87,0,*57
1507942848.63,40683,10.5,74228.3,-3.71,-26.23,-26.17,0,*5B
1507942849.92,40684,10.5,74232.0,-3.73,-26.29,-26.13,0,*50
1507942851.18,40685,10.5,74234.5,-3.73,-26.23,-26.13,0,*5B
1507942852.43,40686,10.5,74230.5,-3.71,-26.17,-25.91,0,*54
1507942853.66,40687,10.5,74224.0,-3.73,-26.23,-25.91,0,*50
1507942854.92,40688,10.5,74230.3,-3.73,-26.23,-25.97,0,*59
1507942856.16,40689,10.5,74234.0,-3.75,-26.23,-25.97,0,*5E
1507942857.41,40690,10.5,74234.3,-3.71,-26.17,-25.87,0,*54
1507942858.68,40691,10.5,74234.5,-3.73,-26.23,-25.97,0,*51
1507942859.94,40692,10.5,74228.5,-3.75,-26.29,-25.97,0,*5E
1507942861.2,40693,10.5,74236.0,-3.73,-26.39,-25.97,0,*58
1507942862.44,40694,10.5,74234.3,-3.75,-26.23,-25.97,0,*52
1507942863.7,40695,10.5,74234.5,-3.73,-26.13,-25.87,0,*57
1507942864.96,40696,10.5,74230.3,-3.73,-26.23,-26.13,0,*59
1507942866.19,40697,10.5,74222.0,-3.75,-26.13,-25.87,0,*53
1507942867.46,40698,10.5,74232.5,-3.73,-26.07,-25.71,0,*56
1507942868.75,40699,10.5,74230.8,-3.73,-26.13,-25.75,0,*56
1507942870.01,40700,10.5,74222.8,-3.73,-26.13,-25.87,0,*5A
1507942871.27,40701,10.5,74224.5,-3.73,-26.13,-25.91,0,*5C
1507942872.56,40702,10.5,74224.0,-3.73,-26.29,-26.13,0,*5F
1507942873.85,40703,10.5,74224.3,-3.73,-26.29,-26.13,0,*5E
1507942875.09,40704,10.5,74212.8,-3.75,-26.39,-26.29,0,*57
1507942876.38,40705,10.5,74220.0,-3.73,-26.29,-25.97,0,*57
1507942877.61,40706,10.5,74224.3,-3.73,-26.23,-25.91,0,*58
1507942878.9,40707,10.5,74238.3,-3.73,-26.29,-25.97,0,*55
1507942880.19,40708,10.5,74230.8,-3.73,-26.29,-25.97,0,*5A
1507942881.48,40709,10.5,74244.3,-3.73,-26.29,-26.13,0,*54
1507942882.74,40710,10.5,74232.0,-3.75,-26.13,-25.71,0,*54
1507942884.01,40711,10.5,74232.5,-3.73,-26.23,-25.75,0,*54
1507942885.24,40712,10.5,74230.8,-3.73,-26.23,-25.87,0,*5A
1507942886.47,40713,10.5,74228.3,-3.75,-25.91,-25.55,0,*58
1507942887.71,40714,10.5,74224.5,-3.73,-25.61,-25.39,0,*5C
1507942888.97,40715,10.5,74228.5,-3.75,-25.75,-25.45,0,*55
1507942890.26,40716,10.5,74228.5,-3.73,-26.13,-25.75,0,*50
1507942891.55,40717,10.5,74228.8,-3.73,-26.13,-25.71,0,*55
1507942892.75,40718,10.5,74228.5,-3.75,-26.23,-25.91,0,*51
1507942893.96,40719,10.5,74234.5,-3.75,-26.23,-25.87,0,*57
1507942895.2,40720,10.5,74228.0,-3.73,-25.61,-25.39,0,*5B
1507942896.46,40721,10.5,74224.3,-3.73,-25.75,-25.39,0,*5F
1507942897.71,40722,10.5,74226.5,-3.73,-25.87,-25.61,0,*5C
1507942898.98,40723,10.5,74230.3,-3.73,-25.87,-25.55,0,*5A
1507942900.21,40724,10.5,74242.5,-3.71,-25.49,-25.19,0,*55
1507942901.45,40725,10.5,74234.5,-3.71,-25.87,-25.49,0,*53
1507942902.71,40726,10.5,74234.5,-3.71,-25.81,-25.49,0,*56
1507942903.98,40727,10.5,74236.3,-3.69,-25.81,-25.55,0,*53
1507942905.22,40728,10.5,74240.8,-3.71,-26.03,-25.49,0,*51
1507942906.44,40729,10.5,74234.5,-3.69,-25.91,-25.65,0,*5F
1507942907.7,40730,10.5,74236.8,-3.69,-26.17,-25.81,0,*50
1507942908.96,40731,10.5,74242.0,-3.71,-26.17,-25.87,0,*5E
1507942910.18,40732,10.5,74242.8,-3.71,-26.23,-25.87,0,*5A
1507942911.42,40733,10.5,74242.5,-3.71,-26.39,-26.07,0,*5B
1507942912.68,40734,10.5,74236.8,-3.71,-26.49,-26.17,0,*5A
1507942913.94,40735,10.5,74242.5,-3.71,-26.49,-26.17,0,*5B
1507942915.2,40736,10.5,74236.5,-3.73,-26.45,-26.13,0,*52
1507942916.46,40737,10.5,74236.3,-3.73,-26.39,-26.13,0,*58
1507942917.75,40738,10.5,74236.5,-3.71,-26.33,-26.17,0,*5B
1507942918.99,40739,10.5,74244.8,-3.71,-26.39,-26.07,0,*51
1507942920.28,40740,10.5,74240.3,-3.73,-26.29,-25.97,0,*56
1507942921.54,40741,10.5,74238.5,-3.75,-26.13,-25.71,0,*50
1507942922.81,40742,10.5,74238.0,-3.73,-26.45,-25.97,0,*5E
1507942924.07,40743,10.5,74236.8,-3.75,-26.13,-25.75,0,*56
1507942925.33,40744,10.5,74238.5,-3.73,-26.29,-25.87,0,*53
1507942926.56,40745,10.5,74240.8,-3.73,-26.23,-25.87,0,*58
1507942927.79,40746,10.5,74236.5,-3.73,-26.23,-25.91,0,*5C
1507942929.03,40747,10.5,74238.0,-3.71,-26.39,-26.07,0,*58
1507942930.26,40748,10.5,74238.3,-3.75,-26.29,-25.91,0,*5E
1507942931.55,40749,10.44,74236.8,-3.73,-26.55,-26.29,0,*52
1507942932.81,40750,10.5,74234.3,-3.73,-26.45,-25.97,0,*5D
1507942934.07,40751,10.5,74234.0,-3.73,-26.29,-25.91,0,*50
1507942935.27,40752,10.5,74230.8,-3.75,-26.23,-25.91,0,*5F
1507942936.51,40753,10.5,74236.0,-3.75,-26.61,-26.29,0,*58
1507942937.76,40754,10.5,74242.3,-3.75,-26.55,-26.13,0,*51
1507942938.99,40755,10.5,74236.3,-3.75,-26.55,-26.23,0,*53
1507942940.23,40756,10.5,74244.3,-3.75,-26.45,-26.13,0,*52
1507942941.49,40757,10.5,74242.8,-3.75,-26.29,-25.97,0,*56
1507942942.72,40758,10.5,74244.8,-3.75,-26.45,-26.13,0,*5C
1507942943.99,40759,10.44,74232.3,-3.73,-26.45,-26.13,0,*5B
1507942945.22,40760,10.5,74230.8,-3.75,-26.55,-26.39,0,*5E
1507942946.45,40761,10.5,74230.0,-3.77,-26.65,-26.49,0,*59
1507942947.71,40762,10.5,74232.5,-3.77,-26.61,-26.33,0,*53
1507942948.97,40763,10.5,74226.3,-3.77,-26.61,-26.29,0,*59
1507942950.23,40764,10.44,74250.3,-3.77,-26.49,-26.17,0,*59
1507942951.49,40765,10.5,74226.0,-3.77,-26.45,-26.29,0,*59
1507942952.73,40766,10.5,74212.5,-3.75,-25.75,-25.39,0,*5A
1507942953.99,40767,10.5,74212.5,-3.75,-25.97,-25.71,0,*5B
1507942955.25,40768,10.5,74212.3,-3.77,-26.49,-26.17,0,*55
1507942956.49,40769,10.5,74218.5,-3.77,-26.45,-26.03,0,*5D
1507942957.77,40770,10.5,74218.5,-3.77,-26.29,-25.81,0,*56
1507942959.06,40771,10.5,74216.8,-3.77,-26.13,-25.75,0,*55
1507942960.31,40772,10.5,74228.3,-3.77,-26.45,-26.17,0,*52
1507942961.57,40773,10.5,74220.0,-3.77,-26.33,-25.91,0,*5F
1507942962.86,40774,10.5,74220.0,-3.77,-26.33,-25.97,0,*5E
1507942964.12,40775,10.5,74232.3,-3.77,-26.45,-26.17,0,*55
1507942965.38,40776,10.5,74232.3,-3.77,-26.49,-26.29,0,*57
1507942966.61,40777,10.5,74220.3,-3.75,-26.29,-25.87,0,*55
1507942967.87,40778,10.44,74216.5,-3.75,-26.29,-25.97,0,*5B
1507942969.11,40779,10.5,74224.3,-3.75,-26.29,-25.91,0,*5C
1507942970.31,40780,10.5,74250.0,-3.75,-26.23,-25.91,0,*50
1507942971.54,40781,10.5,74236.8,-3.75,-26.45,-26.13,0,*58
1507942972.78,40782,10.5,74206.5,-3.75,-25.91,-25.55,0,*50
1507942974.04,40783,10.5,74208.3,-3.75,-25.71,-25.29,0,*54
1507942975.28,40784,10.5,74218.8,-3.75,-25.71,-25.39,0,*52
1507942976.52,40785,10.5,74214.8,-3.75,-25.91,-25.55,0,*57
1507942977.81,40786,10.5,74224.0,-3.73,-25.75,-25.55,0,*58
1507942979.01,40787,10.5,74232.8,-3.75,-26.23,-25.87,0,*50
1507942980.27,40788,10.5,74234.8,-3.75,-26.29,-25.97,0,*54
1507942981.48,40789,10.5,74224.8,-3.75,-26.39,-26.23,0,*58
1507942982.68,40790,10.5,74230.0,-3.75,-26.23,-25.87,0,*56
1507942983.97,40791,10.5,74222.8,-3.73,-26.29,-26.13,0,*55
1507942985.21,40792,10.5,74210.8,-3.75,-26.39,-26.13,0,*51
1507942986.44,40793,10.5,74216.8,-3.75,-26.39,-26.13,0,*50
1507942987.65,40794,10.5,74230.0,-3.75,-26.61,-26.45,0,*59
1507942988.86,40795,10.5,74222.0,-3.75,-26.61,-26.39,0,*53
1507942990.1,40796,10.5,74208.5,-3.75,-26.71,-26.39,0,*51
1507942991.33,40797,10.5,74208.5,-3.75,-26.61,-26.29,0,*50
1507942992.57,40798,10.5,74204.3,-3.75,-26.39,-25.97,0,*54
1507942993.8,40799,10.5,74206.3,-3.75,-26.39,-26.13,0,*5A
1507942995.09,40800,10.5,74214.0,-3.77,-26.33,-26.17,0,*59
1507942996.38,40801,10.5,74202.3,-3.77,-26.17,-25.75,0,*59
1507942997.65,40802,10.5,74210.5,-3.77,-26.03,-25.75,0,*5F
1507942998.86,40803,10.5,74216.5,-3.75,-25.87,-25.39,0,*5B
1507943000.07,40804,10.5,74224.5,-3.75,-25.91,-25.61,0,*56
1507943001.34,40805,10.5,74220.0,-3.75,-26.13,-25.75,0,*5B
1507943002.57,40806,10.5,74220.8,-3.75,-26.45,-25.97,0,*57
1507943003.81,40807,10.5,74226.0,-3.75,-26.45,-25.97,0,*56
1507943005.04,40808,10.5,74220.5,-3.75,-26.45,-26.13,0,*56
1507943006.25,40809,10.5,74220.5,-3.75,-26.45,-26.23,0,*54
1507943007.5,40810,10.5,74226.0,-3.75,-26.55,-26.13,0,*5E
1507943008.73,40811,10.5,74230.5,-3.77,-26.61,-26.45,0,*59
1507943009.97,40812,10.5,74234.3,-3.77,-26.45,-26.03,0,*5E
1507943011.23,40813,10.5,74228.3,-3.77,-26.49,-26.17,0,*56
1507943012.49,40814,10.5,74230.8,-3.77,-26.49,-26.17,0,*51
1507943013.75,40815,10.5,74228.3,-3.79,-26.29,-25.97,0,*53
1507943015.01,40816,10.5,74234.8,-3.77,-26.49,-26.17,0,*53
1507943016.25,40817,10.5,74234.0,-3.79,-26.33,-26.03,0,*54
1507943017.49,40818,10.44,74234.3,-3.79,-26.65,-26.33,0,*5B
1507943018.7,40819,10.5,74238.0,-3.79,-26.45,-26.03,0,*5B
1507943019.96,40820,10.5,74238.3,-3.77,-26.45,-25.97,0,*51
1507943021.23,40821,10.5,74240.3,-3.79,-26.33,-25.97,0,*5F
1507943022.49,40822,10.44,74230.3,-3.79,-26.29,-25.97,0,*57
1507943023.78,40823,10.5,74228.3,-3.77,-26.33,-25.97,0,*53
1507943025.03,40824,10.5,74228.0,-3.79,-26.33,-26.03,0,*54
1507943026.26,40825,10.5,74228.0,-3.79,-26.45,-26.17,0,*51
1507943027.48,40826,10.5,74238.3,-3.79,-26.49,-26.03,0,*5B
1507943028.72,40827,10.5,74228.5,-3.79,-26.65,-26.29,0,*5C
1507943029.95,40828,10.44,74226.5,-3.79,-26.61,-26.29,0,*57
1507943031.21,40829,10.5,74238.0,-3.77,-26.45,-26.17,0,*53
1507943032.47,40830,10.5,74238.3,-3.79,-26.29,-25.97,0,*54
1507943033.73,40831,10.5,74234.3,-3.79,-26.29,-25.81,0,*52
1507943034.97,40832,10.5,74236.0,-3.79,-26.33,-26.03,0,*53
1507943036.22,40833,10.44,74232.3,-3.81,-26.55,-26.23,0,*57
1507943037.46,40834,10.5,74238.5,-3.81,-26.49,-26.07,0,*5B
1507943038.71,40835,10.5,74232.0,-3.81,-26.49,-26.03,0,*5E
1507943039.94,40836,10.5,74234.3,-3.81,-26.39,-26.07,0,*5E
1507943041.21,40837,10.5,74240.3,-3.81,-26.49,-25.97,0,*52
1507943042.47,40838,10.5,74244.8,-3.81,-26.39,-25.97,0,*5A
1507943043.71,40839,10.44,74240.8,-3.81,-26.39,-25.87,0,*5A
1507943044.98,40840,10.5,74242.3,-3.81,-26.33,-26.03,0,*51
1507943046.28,40841,10.5,74242.8,-3.81,-26.17,-25.71,0,*50
1507943047.51,40842,10.5,74238.5,-3.83,-26.39,-25.97,0,*55
1507943048.8,40843,10.5,74242.5,-3.81,-26.55,-26.33,0,*51
1507943050.03,40844,10.5,74236.0,-3.83,-26.55,-26.23,0,*55
1507943051.27,40845,10.44,74236.8,-3.81,-26.49,-26.07,0,*5D
1507943052.48,40846,10.5,74238.8,-3.83,-26.39,-26.03,0,*5F
1507943053.69,40847,10.5,74238.5,-3.83,-26.49,-26.07,0,*5D
1507943054.94,40848,10.5,74232.3,-3.83,-26.33,-26.03,0,*5B
1507943056.21,40849,10.44,74232.0,-3.83,-26.33,-25.97,0,*54
1507943057.5,40850,10.5,74232.0,-3.81,-26.33,-25.97,0,*5E
1507943058.77,40851,10.5,74228.0,-3.81,-26.07,-25.71,0,*50
1507943059.97,40852,10.5,74236.5,-3.83,-26.23,-25.87,0,*5E
1507943061.2,40853,10.5,74238.5,-3.81,-26.23,-25.87,0,*5D
1507943062.49,40854,10.5,74232.8,-3.81,-26.33,-25.97,0,*5A
1507943063.73,40855,10.5,74234.3,-3.81,-26.39,-26.03,0,*5F
1507943064.97,40856,10.5,74236.8,-3.81,-26.39,-26.03,0,*5C
1507943066.25,40857,10.5,74232.0,-3.81,-26.33,-26.03,0,*57
1507943067.49,40858,10.44,74232.8,-3.83,-26.33,-25.87,0,*55
1507943068.74,40859,10.5,74238.8,-3.81,-26.23,-25.81,0,*51
1507943070.01,40860,10.44,74228.3,-3.81,-26.33,-26.03,0,*53
1507943071.25,40861,10.5,74236.0,-3.81,-26.49,-26.07,0,*5B
1507943072.49,40862,10.5,74236.8,-3.83,-26.33,-25.87,0,*5C
1507943073.76,40863,10.5,74234.3,-3.81,-26.33,-26.03,0,*50
1507943075.02,40864,10.5,74230.3,-3.83,-26.17,-25.81,0,*5A
1507943076.26,40865,10.44,74224.5,-3.81,-26.39,-26.03,0,*5C
1507943077.53,40866,10.44,74234.3,-3.83,-26.33,-25.97,0,*59
1507943078.75,40867,10.5,74234.0,-3.83,-26.39,-26.03,0,*5C
1507943079.99,40868,10.5,74232.3,-3.83,-26.33,-26.07,0,*5D
1507943081.25,40869,10.44,74230.0,-3.83,-26.17,-25.81,0,*57
1507943082.54,40870,10.44,74232.0,-3.81,-26.33,-25.81,0,*5B
1507943083.8,40871,10.44,74234.0,-3.83,-26.17,-25.81,0,*5E
1507943085.03,40872,10.44,74234.3,-3.83,-26.23,-25.81,0,*5A
1507943086.26,40873,10.5,74242.0,-3.83,-26.23,-25.97,0,*5C
1507943087.47,40874,10.44,74232.8,-3.83,-26.23,-26.03,0,*55
1507943088.71,40875,10.5,74238.5,-3.83,-26.33,-26.03,0,*55
1507943089.93,40876,10.44,74236.8,-3.83,-26.39,-26.07,0,*58
1507943091.14,40877,10.5,74238.5,-3.83,-26.39,-26.03,0,*5D
1507943092.41,40878,10.5,74234.8,-3.83,-26.33,-25.97,0,*56
1507943093.65,40879,10.44,74236.3,-3.83,-26.33,-26.03,0,*59
1507943094.92,40880,10.5,74238.8,-3.83,-26.33,-25.97,0,*51
1507943096.16,40881,10.5,74236.3,-3.83,-26.33,-25.87,0,*51
1507943097.38,40882,10.44,74238.5,-3.83,-26.49,-26.03,0,*50
1507943098.63,40883,10.5,74236.8,-3.87,-26.55,-26.13,0,*59
1507943099.85,40884,10.5,74238.5,-3.83,-26.39,-26.03,0,*51
1507943101.05,40885,10.44,74238.5,-3.87,-26.39,-25.91,0,*5C
1507943102.26,40886,10.5,74236.8,-3.87,-26.39,-25.91,0,*5F
1507943103.49,40887,10.5,74238.0,-3.87,-26.13,-25.87,0,*51
1507943104.73,40888,10.44,74232.0,-3.87,-26.07,-25.75,0,*56
1507943105.96,40889,10.44,74232.8,-3.87,-26.29,-25.87,0,*56
1507943107.19,40890,10.5,74234.3,-3.87,-26.29,-25.91,0,*59
1507943108.43,40891,10.44,74232.3,-3.87,-26.29,-25.91,0,*58
1507943109.63,40892,10.44,74238.3,-3.83,-26.23,-25.87,0,*52
1507943110.86,40893,10.44,74234.8,-3.83,-26.23,-25.97,0,*52
1507943112.07,40894,10.44,74238.5,-3.83,-26.23,-26.03,0,*5B
1507943113.31,40895,10.5,74230.8,-3.83,-26.33,-25.87,0,*54
1507943114.54,40896,10.5,74234.5,-3.83,-26.07,-25.81,0,*56
1507943115.8,40897,10.44,74238.0,-3.83,-25.97,-25.71,0,*52
1507943117.04,40898,10.44,74244.8,-3.83,-26.23,-25.97,0,*59
1507943118.27,40899,10.44,74236.3,-3.81,-26.23,-26.03,0,*54
1507943119.54,40900,10.44,74238.0,-3.83,-26.33,-25.97,0,*58
1507943120.78,40901,10.5,74242.5,-3.83,-26.07,-25.71,0,*56
1507943122.01,40902,10.44,74242.8,-3.83,-26.23,-25.97,0,*5B
1507943123.24,40903,10.5,74242.0,-3.83,-26.23,-25.97,0,*5A
1507943124.51,40904,10.44,74242.0,-3.83,-26.33,-25.97,0,*5C
1507943125.78,40905,10.44,74238.5,-3.83,-26.33,-25.97,0,*5D
1507943127.01,40906,10.44,74236.3,-3.87,-26.29,-25.91,0,*57
1507943128.25,40907,10.5,74240.8,-3.87,-26.29,-26.07,0,*5A
1507943129.48,40908,10.44,74232.3,-3.87,-26.39,-26.13,0,*51
1507943130.72,40909,10.44,74236.5,-3.83,-26.39,-26.33,0,*56
1507943131.96,40910,10.5,74236.8,-3.87,-26.39,-26.29,0,*51
1507943133.2,40911,10.44,74238.0,-3.83,-26.33,-26.03,0,*56
1507943134.47,40912,10.44,74238.0,-3.83,-26.33,-25.97,0,*5B
1507943135.68,40913,10.44,74242.0,-3.87,-26.45,-26.07,0,*55
1507943136.94,40914,10.5,74236.8,-3.89,-26.45,-26.33,0,*5B
1507943138.18,40915,10.5,74248.5,-3.87,-26.45,-26.29,0,*5F
1507943139.41,40916,10.44,74238.3,-3.87,-26.61,-26.33,0,*51
1507943140.68,40917,10.44,74240.0,-3.89,-26.45,-26.17,0,*5E
1507943141.88,40918,10.44,74242.8,-3.83,-26.39,-26.23,0,*57
1507943143.14,40919,10.5,74246.5,-3.89,-26.45,-26.17,0,*50
1507943144.42,40920,10.44,74238.3,-3.89,-26.33,-26.07,0,*5A
1507943145.65,40921,10.44,74244.8,-3.87,-26.45,-26.29,0,*58
1507943146.86,40922,10.44,74244.3,-3.87,-26.45,-26.39,0,*5A
1507943148.07,40923,10.44,74244.5,-3.87,-26.61,-26.45,0,*56
1507943149.33,40924,10.5,74246.8,-3.89,-26.49,-26.17,0,*52
1507943150.6,40925,10.5,74248.3,-3.89,-26.45,-26.13,0,*5B
1507943151.81,40926,10.5,74244.5,-3.87,-26.39,-26.07,0,*58
1507943153.07,40927,10.5,74244.5,-3.89,-26.49,-26.13,0,*55
1507943154.34,40928,10.44,74246.3,-3.89,-26.45,-26.17,0,*52
1507943155.58,40929,10.44,74240.0,-3.89,-26.45,-26.07,0,*52
1507943156.84,40930,10.5,74242.8,-3.89,-26.13,-25.91,0,*55
1507943158.04,40931,10.44,74246.5,-3.87,-26.23,-25.91,0,*59
1507943159.27,40932,10.5,74246.5,-3.87,-26.39,-26.13,0,*58
1507943160.51,40933,10.44,74240.3,-3.87,-26.29,-26.07,0,*5D
1507943161.77,40934,10.44,74246.3,-3.89,-26.45,-26.13,0,*5B
1507943163.07,40935,10.5,74248.8,-3.89,-26.17,-25.97,0,*52
1507943164.36,40936,10.44,74246.5,-3.89,-26.17,-25.97,0,*51
1507943165.66,40937,10.5,74244.0,-3.89,-26.33,-26.13,0,*59
1507943166.92,40938,10.44,74242.5,-3.89,-26.45,-26.33,0,*55
1507943168.16,40939,10.5,74244.8,-3.87,-26.45,-26.29,0,*51
1507943169.39,40940,10.5,74244.5,-3.87,-26.39,-26.13,0,*5D
1507943170.66,40941,10.44,74242.3,-3.89,-26.49,-26.33,0,*57
1507943171.9,40942,10.44,74240.3,-3.89,-26.45,-26.45,0,*59
1507943173.13,40943,10.44,74238.5,-3.87,-26.39,-26.29,0,*57
1507943174.37,40944,10.5,74240.0,-3.89,-26.45,-26.45,0,*5F
1507943175.67,40945,10.5,74234.5,-3.89,-26.33,-26.33,0,*5E
1507943176.96,40946,10.44,74234.3,-3.89,-26.29,-26.17,0,*50
1507943178.25,40947,10.44,74236.0,-3.89,-26.33,-26.33,0,*5C
1507943179.52,40948,10.44,74232.5,-3.91,-26.33,-26.17,0,*5C
1507943180.73,40949,10.44,74228.5,-3.91,-26.39,-26.23,0,*50
1507943182.02,40950,10.5,74230.8,-3.89,-26.33,-26.17,0,*5C
1507943183.25,40951,10.44,74230.0,-3.89,-26.45,-26.45,0,*5B
1507943184.46,40952,10.44,74226.8,-3.91,-26.45,-26.45,0,*51
1507943185.7,40953,10.44,74234.0,-3.91,-26.29,-26.07,0,*5C
1507943186.96,40954,10.5,74232.8,-3.91,-26.17,-25.97,0,*5C
1507943188.26,40955,10.44,74222.0,-3.89,-26.33,-26.17,0,*59
1507943189.52,40956,10.5,74218.8,-3.89,-26.13,-25.91,0,*55
1507943190.75,40957,10.44,74222.3,-3.91,-25.97,-25.91,0,*52
1507943191.96,40958,10.44,74220.0,-3.91,-26.07,-25.91,0,*57
1507943193.16,40959,10.44,74228.5,-3.87,-26.07,-25.91,0,*51
1507943194.4,40960,10.44,74226.5,-3.89,-26.07,-25.91,0,*55
1507943195.67,40961,10.5,74228.5,-3.89,-26.07,-25.97,0,*52
1507943196.96,40962,10.44,74228.3,-3.89,-26.29,-26.17,0,*56
1507943198.22,40963,10.44,74222.3,-3.87,-25.71,-25.71,0,*54
1507943199.44,40964,10.5,74218.8,-3.87,-26.39,-26.39,0,*53
1507943200.67,40965,10.44,74210.3,-3.89,-26.45,-26.61,0,*5A
1507943201.94,40966,10.44,74208.0,-3.89,-26.45,-26.33,0,*5E
1507943203.17,40967,10.44,74204.5,-3.91,-25.91,-25.81,0,*56
1507943204.43,40968,10.44,74216.0,-3.87,-25.97,-25.97,0,*5F
1507943205.64,40969,10.44,74222.0,-3.87,-26.23,-26.07,0,*58
1507943206.93,40970,10.44,74220.5,-3.89,-26.17,-26.13,0,*5C
1507943208.2,40971,10.44,74224.5,-3.89,-26.13,-26.07,0,*5C
1507943209.43,40972,10.44,74226.8,-3.87,-26.13,-26.07,0,*51
1507943210.69,40973,10.44,74232.5,-3.87,-26.29,-26.29,0,*55
1507943211.89,40974,10.44,74234.0,-3.87,-26.45,-26.45,0,*52
1507943213.14,40975,10.44,74228.8,-3.89,-26.07,-26.07,0,*5D
1507943214.43,40976,10.44,74230.3,-3.89,-25.97,-25.81,0,*59
1507943215.69,40977,10.44,74228.0,-3.87,-26.13,-26.29,0,*58
1507943216.98,40978,10.44,74212.8,-3.89,-26.29,-26.33,0,*5B
1507943218.24,40979,10.5,74226.5,-3.89,-26.29,-26.49,0,*57
1507943219.51,40980,10.44,74222.0,-3.89,-26.33,-26.45,0,*56
1507943220.8,40981,10.44,74230.0,-3.89,-26.29,-26.13,0,*5F
1507943222.06,40982,10.44,74206.3,-3.89,-26.07,-25.97,0,*5F
1507943223.3,40983,10.44,74186.0,-3.87,-25.91,-25.75,0,*50
1507943224.55,40984,10.44,74214.8,-3.87,-25.45,-25.45,0,*5D
1507943225.81,40985,10.44,74234.0,-3.87,-25.55,-25.45,0,*5D
1507943227.04,40986,10.44,74208.3,-3.83,-25.03,-24.97,0,*57
1507943228.25,40987,10.44,74200.5,-3.83,-25.35,-25.39,0,*56
1507943229.45,40988,10.5,74218.0,-3.83,-25.23,-25.35,0,*52
1507943230.72,40989,10.44,74214.5,-3.81,-25.55,-25.65,0,*55
1507943231.92,40990,10.44,74204.5,-3.83,-25.23,-25.23,0,*5C
1507943233.19,40991,10.44,74202.3,-3.81,-25.03,-25.09,0,*55
1507943234.45,40992,10.44,74200.5,-3.81,-25.49,-25.55,0,*51
1507943235.72,40993,10.5,74194.0,-3.77,-26.03,-25.97,0,*5A
1507943236.98,40994,10.44,74186.8,-3.79,-26.29,-26.29,0,*5D
1507943238.25,40995,10.5,74186.0,-3.79,-26.33,-26.33,0,*5C
1507943239.51,40996,10.44,74194.8,-3.79,-26.13,-25.97,0,*50
1507943240.78,40997,10.44,74206.0,-3.79,-26.17,-25.97,0,*55
1507943242.01,40998,10.5,74214.8,-3.79,-26.17,-25.91,0,*5C
1507943243.27,40999,10.44,74202.5,-3.79,-26.17,-26.17,0,*50
1507943244.54,41000,10.44,74202.8,-3.79,-26.33,-26.33,0,*58
1507943245.77,41001,10.44,74216.3,-3.79,-26.33,-26.45,0,*58
1507943247.01,41002,10.44,74218.3,-3.79,-26.17,-26.03,0,*5F
1507943248.27,41003,10.44,74214.3,-3.79,-25.97,-25.81,0,*5C
1507943249.51,41004,10.44,74212.8,-3.81,-26.07,-26.23,0,*5D
1507943250.73,41005,10.44,74216.5,-3.81,-26.23,-26.23,0,*5A
1507943251.97,41006,10.44,74222.8,-3.79,-26.17,-26.45,0,*59
1507943253.18,41007,10.44,74212.0,-3.79,-26.49,-26.65,0,*51
1507943254.4,41008,10.44,74206.8,-3.79,-26.29,-26.49,0,*56
1507943255.65,41009,10.5,74206.5,-3.79,-26.03,-25.97,0,*5F
1507943256.85,41010,10.5,74212.0,-3.79,-26.45,-26.61,0,*5F
1507943258.06,41011,10.44,74218.0,-3.79,-26.49,-26.65,0,*56
1507943259.32,41012,10.44,74218.8,-3.79,-26.29,-26.29,0,*5B
1507943260.58,41013,10.5,74222.8,-3.81,-26.23,-26.33,0,*5C
1507943261.85,41014,10.5,74208.0,-3.81,-26.33,-26.39,0,*50
1507943263.09,41015,10.44,74180.0,-3.81,-26.07,-26.03,0,*5F
1507943264.33,41016,10.44,74182.5,-3.79,-26.13,-26.03,0,*5E
1507943265.59,41017,10.44,74174.5,-3.79,-25.75,-25.75,0,*5E
1507943266.8,41018,10.44,74184.3,-3.79,-25.61,-25.65,0,*55
1507943268.02,41019,10.44,74184.0,-3.79,-25.61,-25.65,0,*54
1507943269.3,41020,10.5,74210.0,-3.77,-25.75,-25.75,0,*54
1507943270.56,41021,10.44,74192.8,-3.79,-25.81,-25.75,0,*50
1507943271.83,41022,10.44,74198.5,-3.79,-25.75,-25.75,0,*58
1507943273.06,41023,10.5,74218.3,-3.79,-25.65,-25.75,0,*58
1507943274.32,41024,10.44,74188.0,-3.77,-25.91,-25.97,0,*56
1507943275.57,41025,10.44,74204.3,-3.77,-26.03,-26.03,0,*51
1507943276.83,41026,10.44,74214.5,-3.77,-26.13,-26.03,0,*53
1507943278.11,41027,10.44,74206.0,-3.77,-26.17,-26.17,0,*53
1507943279.37,41028,10.44,74200.5,-3.79,-25.97,-25.97,0,*52
1507943280.6,41029,10.44,74188.3,-3.79,-26.03,-26.03,0,*53
1507943281.86,41030,10.44,74194.0,-3.79,-26.17,-26.33,0,*5D
1507943283.14,41031,10.44,74196.0,-3.77,-26.13,-25.97,0,*5B
1507943284.41,41032,10.44,74220.8,-3.77,-26.03,-25.97,0,*59
1507943285.69,41033,10.5,74216.0,-3.77,-25.81,-25.81,0,*56
1507943286.93,41034,10.44,74210.5,-3.77,-26.03,-25.91,0,*59
1507943288.21,41035,10.44,74208.3,-3.77,-25.81,-25.81,0,*50
1507943289.47,41036,10.5,74204.0,-3.77,-25.97,-25.91,0,*55
1507943290.73,41037,10.5,74212.3,-3.75,-25.75,-25.71,0,*54
1507943291.99,41038,10.5,74222.3,-3.75,-25.55,-25.45,0,*5E
1507943293.26,41039,10.44,74234.5,-3.75,-25.71,-25.71,0,*5E
1507943294.53,41040,10.44,74226.8,-3.75,-25.55,-25.55,0,*50
1507943295.76,41041,10.44,74236.3,-3.75,-25.29,-25.23,0,*5B
1507943297.02,41042,10.44,74230.3,-3.73,-25.39,-25.45,0,*5F
1507943298.31,41043,10.44,74234.8,-3.73,-25.75,-25.75,0,*55
1507943299.6,41044,10.5,74246.0,-3.73,-26.13,-26.29,0,*5B
1507943300.83,41045,10.44,74242.0,-3.73,-26.23,-26.45,0,*53
1507943302.06,41046,10.44,74238.0,-3.75,-26.29,-26.45,0,*5C
1507943303.27,41047,10.44,74242.8,-3.75,-26.23,-26.39,0,*5C
1507943304.5,41048,10.44,74242.0,-3.75,-26.29,-26.45,0,*52